Location: Newark
(46.9000°N, 28.3500°E)
Time: 15:02:12
(UTC+00:00)

Vanguard 1 Rocket - Pass Details

Date: 26 August 2019
Orbit: 651 x 4225 km, 34.3° (Epoch: 20 September)

Event Time Altitude Azimuth Distance (km) Brightness Sun altitude
Rises 00:36:56 0° 236° (SW) 2,969 - -23.7°
Reaches altitude 10° 00:39:42 10° 217° (SW) 2,056 - -23.4°
Maximum altitude 00:42:52 19° 170° (S) 1,650 - -23.0°
Exits shadow 00:44:13 17° 149° (SSE) 1,817 8.8 -22.9°
Drops below altitude 10° 00:46:34 10° 125° (SE) 2,449 9.7 -22.6°
Sets 00:50:17 0° 109° (ESE) 3,786 10.9 -22.2°
